SHIYAN-30 01

Last updated on Thu Oct 30 2025 00:02:06 GMT+0000 (Coordinated Universal Time)

1 65851U 25222A 25302.73360936 .00004005 00000+0 38026-3 0 9997 2 65851 34.9878 204.9234 0006255 234.5593 125.4528 14.93005193 4588

Satellite not in orbit

SHIYAN-30 01